www.pogodaiklimat.ru

Погода и климат >> Архив погоды >> Мексика >> Nueva Casas Grandes


ПОГОДА в Nueva Casas Grandes

  • Прогноз погоды в Nueva Casas Grandes
  • Монитор погоды в Nueva Casas Grandes
  • Климат города

АРХИВ ПОГОДЫ в Nueva Casas Grandes

Время (UTC), дата Ветер
(напр.,м/с)
 
Видим.   Явления Облачность Т
(С)
Тd
(С)
f
(%)
Тe
(С)
Тes
(С)
Комфортность P
(гПа)
Po
(гПа)
Тmin
(С)
Tmax
(С)
R
(мм)
R24
(мм)
S
(см)
09 15.10 штиль 0 2000 м ясно +8.8 +8.3 97 +8 +8 1004.2 846.3
12 15.10 штиль 0 2000 м ясно +8.0 +7.6 97 +7 +7 1006.6 846.6 +8.0 +23.5
15 15.10 штиль 0 20 км 8/8 900 м
[Sc diur, vesp]
+11.0 +10.0 94 +10 +11 1009.2 848.0
18 15.10 ЮВ 3 20 км 8/1 900 м
[Cu hum Ac lent]
+15.0 +9.0 67 +14 +18 1008.9 848.2 +7.4 +16.0
21 15.10 ЮВ 3 20 км 5/1 900 м
[Cu hum Ac lent]
+15.0 +8.6 66 +14 +19 1006.6 847.0
00 16.10 ЮВ 4 20 км 9/1 600 м
[Cu hum Ac As]
+10.6 +5.5 71 +8 +8 1007.0 847.8 +7.4 +16.0
03 16.10 ЮВ 2 6000 м 10/0 1500 м
[As op]
+7.8 +5.2 84 +6 +6 1009.4 849.7
06 16.10 ЮВ 1 6000 м 10/10 1500 м
[]
+6.8 +6.1 95 +6 +6 1010.9 850.1 +16.0
09 16.10 В 1 2000 м 10/10 630 м
[Frnb]
+6.3 +2.9 79 +5 +5 1011.3 849.3
12 16.10 В 2 2000 м 10/10 630 м
[Frnb]
+5.2 +2.8 84 +3 +3 1012.3 849.3 +5.2 +16.0
15 16.10 ЮВ 1 20 км 10/10 600 м
[St]
+5.0 +3.0 87 +4 +4 1013.9 850.2
18 16.10 ЮВ 3 18 км 10/10 600 м
[St]
+8.8 +4.7 75 +6 +6 1013.9 850.2 +4.6 +9.3
21 16.10 В 2 19 км 10/9 480 м
[Frnb As trans]
+10.4 +5.7 73 +9 +10 1011.9 849.0
00 17.10 штиль 0 20 км 10/1 600 м
[Frnb As op]
+10.4 +6.5 77 +10 +10 1011.9 849.6 +4.6 +11.4
03 17.10 штиль 0 6000 м 10/0 1500 м
[As op]
+9.2 +8.5 95 +8 +8 1013.0 851.1
06 17.10 штиль 0 6000 м 8/0
[Ac trans]
+7.4 +6.7 95 +6 +6 1013.9 852.0 +11.4
09 17.10 ЮВ 1 2000 м ясно +5.2 +3.2 87 +4 +4 1014.6 852.1
12 17.10 В 1 2000 м 10/10 500 м
[Frnb]
+6.0 +3.6 85 +5 +5 1015.8 852.5 +5.2 +11.4
15 17.10 В 1 10 км 10/10 600 м
[St]
+6.4 +4.5 88 +5 +5 1017.6 853.6
18 17.10 ЮВ 1 15 км 10/10 600 м
[St]
+9.0 +5.3 78 +8 +8 1017.7 853.6 +5.0 +9.2
21 17.10 В 3 19 км 10/9 480 м
[Frnb As op]
+10.6 +6.3 75 +9 +9 1015.3 852.1
00 18.10 В 2 19 км 10/9 300 м
[Frnb As op]
+11.2 +6.9 75 +10 +10 1014.1 851.8 +5.0 +12.0
03 18.10 ЮВ 1 6000 м 10/10 600 м
[Frnb]
+9.8 +6.6 80 +9 +9 1014.8 852.9
06 18.10 В 1 6000 м 10/10 600 м
[Frnb]
+8.8 +7.4 91 +8 +8 1015.1 853.3 +12.0
09 18.10 В 1 2000 м 10/10 660 м
[Frnb]
+8.2 +6.6 90 +7 +7 1014.6 852.7
12 18.10 В 1 2000 м 10/10 660 м
[Frnb]
+8.3 +7.0 92 +7 +7 1014.1 851.9 +8.0 +12.0
15 18.10 В 1 10 км 10/10 600 м
[St]
+9.2 +7.4 88 +9 +9 1015.2 852.6
18 18.10 В 2 20 км 8/8 900 м
[Sc diur, vesp]
+14.4 +9.4 72 +14 +16 1014.0 852.1 +8.0 +15.0
21 18.10 В 1 20 км 6/1 1200 м
[Cu med, cong Ac trans]
+18.6 +11.0 61 +20 +27 1009.6 849.6
00 19.10 штиль 0 20 км 4/0 1500 м
[Ac trans]
+16.8 +12.4 75 +17 +17 1008.1 849.5 +8.0 +20.0
12 19.10 штиль 0 6000 м ясно +6.8 +6.4 97 +6 +6 1012.6 851.0 +6.8 +20.0
15 19.10 штиль 0 10 км 10/10 600 м
[St]
+8.4 +8.0 97 +7 +7 1015.2 852.3
18 19.10 штиль 0 16 км 10/9 300 м
[Frnb As op]
+12.4 +10.1 86 +12 +12 1014.9 852.3 +6.4 +12.6
21 19.10 штиль 0 20 км 4/1 900 м
[Cu hum Ac lent]
+18.6 +12.4 67 +19 +27 1010.8 850.0
00 20.10 штиль 0 20 км 8/0 1500 м
[Ac trans]
+18.6 +13.1 70 +19 +20 1008.7 849.8 +6.4 +20.6
03 20.10 штиль 0 6000 м 9/0 1500 м
[Ac trans]
+15.8 +11.3 75 +16 +16 1008.8 851.0
09 20.10 штиль 0 2000 м 6/0
[Ac trans]
+12.5 +11.0 91 +12 +12 1009.2 851.3
12 20.10 штиль 0 2000 м 10/10 600 м
[Frnb]
+13.4 +14 +14 1010.2 851.4 +11.5 +20.6
15 20.10 штиль 0 10 км 9/9 600 м
[St]
+14.5 +13.1 91 +14 +14 1012.1 852.8
18 20.10 В 1 18 км 9/9 600 м
[St]
+16.8 +14.4 86 +18 +19 1012.6 853.2 +11.5 +17.0
21 20.10 В 3 19 км 9/4 800 м
[Frnb As trans]
+19.2 +13.1 68 +21 +23 комфорт 1009.9 851.6
00 21.10 В 3 19 км 6/1 600 м
[Sc Ac lent]
+17.4 +11.7 69 +17 +18 1009.2 851.6 +11.5 +19.6
12 21.10 В 1 2000 м 10/0 1500 м
[As op]
+13.0 +11.0 88 +13 +13 1010.9 852.1 +13.0 +19.6
15 21.10 В 1 15 км 9/0 1500 м
[Ac As]
+13.6 +10.8 83 +14 +15 1012.3 852.8
18 21.10 ЮВ 2 19 км 6/3 420 м
[Cu hum Ac lent]
+19.0 +12.5 66 +21 +25 комфорт 1011.0 852.0 +12.6 +19.4
21 21.10 В 2 20 км 4/1 930 м
[Cu hum Ac lent]
+22.0 +13.2 57 +25 +31 комфорт 1006.5 849.1
00 22.10 СВ 1 20 км слабая морось 6/0 1500 м
[As op]
+19.4 +12.6 65 +22 +22 комфорт 1003.4 847.3 0.0
03 22.10 штиль 0 6000 м слабая морось 8/0 1500 м
[As op]
+15.2 +12.7 85 +15 +15 1004.9 849.0 0.2

 

Местоположение метеостанции Nueva Casas Grandes (Мексика): широта 30.37 долгота -107.90 высота над уровнем моря 1487 м.

В архиве по умолчанию представлена погода в Nueva Casas Grandes за последнюю неделю. Архивные данные за месяц целиком и за предыдущие месяцы, начиная с января 2011 года, Вы можете получить, выбрав интересующий диапазон дат из раскрывающегося списка и нажав кнопку "Ввод!".


*Определитесь, кто Вы:
робот инопланетянин человек

Внимание! Время в таблицах - всемирное. Для получения местного времени необходимо прибавить поправку, которая в Nueva Casas Grandes равна -7 ч.

Смотрите также архив погоды в соседних городах и на ближайших метеорологических станциях:

Погода в Temosachic (Мексика) (158 км)
Погода в Pilares de Nacoz (Мексика) (171 км)
Погода в Chihuahua (Мексика) (256 км)
Погода в Chihuahua University (Мексика) (267 км)
Погода в Hermosillo la Magna (Мексика) (328 км)
Погода в Hermosillo (Мексика) (336 км)
Погода в Altar Son (Мексика) (379 км)
Погода в Ciudad Obregon (Мексика) (381 км)
Погода в Empalme (Мексика) (383 км)
Погода в Guaymas (Мексика) (398 км)

Пояснения к столбцам:

Ветер - указаны скорость ветра в м/с - средняя за 10 мин, порывы в срок и между сроками (в фигурных скобках) и направление, откуда дует ветер: С - северный, СВ - северо-восточный, В - восточный, ЮВ - юго-восточный, Ю - южный, ЮЗ - юго-западный, З - западный, СЗ - северо-западный.
Видимость - горизонтальная дальность видимости в метрах или километрах. При видимости от 1 до 10 км при отсутствии осадков обычно наблюдается дымка, при ухудшении видимости до 1 км и менее - туман. В сухую погоду видимость может ухудшаться дымом, пылью или мглою.
Явления - указаны атмосферные явления, наблюдавшиеся в срок или в последний час перед сроком; фигурными скобками обозначены явления, наблюдавшиеся между сроками (за 1-3 часа до срока); квадратными скобками обозначены град или гололедные отложения с указанием их диаметра в мм.
Облачность - указаны через наклонную черту общая и нижняя облачность в баллах и высота нижней границы облаков в метрах; квадратными скобками обозначены формы облаков: Ci - перистые, Cs - перисто-слоистые, Cc - перисто-кучевые, Ac - высококучевые, As - высокослоистые, Sc - слоисто-кучевые, Ns - слоисто-дождевые, Cu - кучевые, Cb - кучево-дождевые. Подробнее классификацию облаков см. в Атласе облаков (PDF).
T - Температура воздуха - температура, измеренная на высоте 2 м над землей.
Td - Температура точки росы - температура, при понижении до которой содержащийся в воздухе водяной пар достигнет насыщения.
f - Относительная влажность воздуха - влажноcть воздуха, измеренная на высоте 2 м над землей.
Te - Эффективная температура - температура, которую ощущает одетый по сезону человек в тени. Характеристика душности погоды. При расчете учитывается влияние влажности воздуха и скорости ветра на теплоощущения человека.
Tes - Эффективная температура на солнце - температура, которую ощущает человек, с поправкой на солнечный нагрев. Характеристика знойности погоды. Зависит от высоты солнца над горизонтом, облачности и скорости ветра. Ночью, в пасмурную погоду, а также при ветре 12 м/с и более поправка равна нулю.
P - Атмосферное давление - приведенное к уровню моря атмосферное давление.
Po - Атмосферное давление - измеренное на уровне метеостанции атмосферное давление.
Tmin - Минимальная температура - минимум температуры воздуха на высоте 2 м над землей.
Tmax - Максимальная температура - максимум температуры воздуха на высоте 2 м над землей.
R - Количество осадков - Количество выпавших осадков за период времени, мм. При наведении курсора мыши на число - период времени, за который выпало указанное количество осадков.
R24 - Количество осадков - Количество выпавших осадков за 24 часа, мм.
S - Снежный покров - Высота снежного покрова, см. При наведении курсора мыши на число - состояние снежного покрова и степень покрытия местности в баллах.